"startDT [UTC]","vpos","CH4 [ppm]","stdev(CH4) [ppm]","CO2 [ppm]","stdev(CO2) [ppm]","H2O_reported [%]","stdev(H2O_reported)","CavityPressure [torr]","CavityTemp [C]","OutletValve","CH4_dry [ppm]","CO2_dry [ppm]","DasTemp [C]","EtalonTemp [C]","WarmBoxTemp [C]","MPVPosition","T_ECpre [C]","T_EC1 [C]","T_EC2 [C]","p_inlet [hPa]","p_in [hPa]","p_out [hPa]","T_inlet [C]","RH_inlet [%]","dwpt_inlet [C]","T_vent [C]","RH_vent [%]","dwpt_vent [C]","flow_vent [l min-1]","flow_inlet [l min-1]","dwpt_sample [C]","T_room [C]"
2016-02-17 00:00:00,0.0,1.92381,0.00023,405.765,0.145,0.0729,0.0016,139.998,45.000,31480.80770,1.92518,406.114,34.045,45.070,45.000,0.00,0.08,-272.76,-272.82,-5,522,-939,20.6,2.4,-28.6,20.7,2.4,-28.3,5.73,1.83,-19.0,26.7
2016-02-17 00:01:00,0.0,1.92395,0.00041,406.206,0.278,0.0724,0.0017,139.999,45.000,31479.42417,1.92532,406.561,34.055,45.070,45.000,0.00,0.08,-272.75,-272.81,-5,522,-938,20.6,2.4,-28.6,20.7,2.4,-28.2,5.73,2.13,-19.0,26.7
2016-02-17 00:02:00,0.0,1.92413,0.00037,405.797,0.158,0.0730,0.0016,140.001,45.000,31481.10756,1.92551,406.160,34.061,45.070,44.999,0.00,0.08,-272.75,-272.81,-6,522,-938,20.6,2.4,-28.6,20.6,2.5,-28.2,5.73,1.78,-19.1,26.7
2016-02-17 00:03:00,0.0,1.92427,0.00034,405.539,0.087,0.0725,0.0013,139.999,45.000,31480.77246,1.92562,405.889,34.063,45.070,44.999,0.00,0.08,-272.76,-272.81,-5,522,-939,20.6,2.4,-28.7,20.7,2.5,-28.2,5.73,1.96,-19.2,26.7
2016-02-17 00:04:00,0.0,1.92404,0.00039,405.758,0.153,0.0727,0.0019,140.001,45.000,31479.78620,1.92543,406.111,34.063,45.070,45.000,0.00,0.08,-272.76,-272.81,-5,522,-939,20.6,2.4,-28.6,20.6,2.5,-28.2,5.73,2.06,-19.2,26.7
2016-02-17 00:05:00,0.0,1.92408,0.00037,405.685,0.108,0.0725,0.0014,139.999,45.000,31478.88029,1.92544,406.041,34.074,45.070,45.000,0.00,0.08,-272.75,-272.81,-7,522,-938,20.6,2.4,-28.6,20.6,2.5,-28.2,5.73,1.74,-19.3,26.7
2016-02-17 00:06:00,0.0,1.92408,0.00028,406.068,0.153,0.0728,0.0022,139.999,45.000,31477.87422,1.92545,406.413,34.102,45.070,45.000,0.00,0.08,-272.76,-272.81,-6,522,-938,20.6,2.4,-28.6,20.6,2.5,-28.2,5.73,2.08,-19.3,26.7
2016-02-17 00:07:00,0.0,1.92414,0.00048,407.079,0.465,0.0730,0.0014,139.999,45.000,31478.24745,1.92552,407.418,34.099,45.070,45.000,0.00,0.08,-272.75,-272.81,-5,522,-938,20.6,2.4,-28.6,20.7,2.5,-28.2,5.73,1.94,-19.3,26.7
2016-02-17 00:08:00,0.0,1.92405,0.00025,407.794,0.155,0.0732,0.0015,139.998,45.000,31477.47229,1.92545,408.146,34.065,45.070,45.000,0.00,0.08,-272.75,-272.80,-6,522,-939,20.6,2.4,-28.6,20.6,2.5,-28.2,5.73,1.79,-19.4,26.8
2016-02-17 00:09:00,0.0,1.92399,0.00026,407.536,0.211,0.0736,0.0025,140.001,45.000,31479.60800,1.92537,407.908,34.063,45.070,45.000,0.00,0.08,-272.76,-272.81,-6,522,-938,20.6,2.4,-28.6,20.6,2.5,-28.2,5.73,2.13,-19.4,26.7
2016-02-17 00:10:00,0.0,1.92428,0.00027,407.334,0.093,0.0734,0.0019,140.001,45.000,31479.32504,1.92568,407.689,34.063,45.070,45.000,0.00,0.08,-272.76,-272.82,-5,522,-938,20.6,2.4,-28.6,20.7,2.5,-28.2,5.73,1.82,-19.4,26.7
2016-02-17 00:11:00,0.0,1.92421,0.00044,407.367,0.160,0.0738,0.0021,139.999,45.000,31479.71143,1.92563,407.731,34.063,45.070,45.000,0.00,0.08,-272.76,-272.81,-6,522,-939,20.6,2.4,-28.6,20.6,2.5,-28.2,5.73,1.90,-19.5,26.7
2016-02-17 00:12:00,0.0,1.92414,0.00033,407.208,0.149,0.0736,0.0015,140.000,45.000,31481.04691,1.92553,407.578,34.057,45.070,45.000,0.00,0.08,-272.75,-272.81,-6,522,-938,20.6,2.4,-28.6,20.7,2.5,-28.2,5.73,2.10,-19.5,26.7
2016-02-17 00:13:00,0.0,1.92416,0.00040,407.084,0.182,0.0732,0.0014,140.000,45.000,31481.14724,1.92556,407.436,34.009,45.070,45.000,0.00,0.08,-272.75,-272.82,-5,522,-938,20.6,2.4,-28.6,20.7,2.5,-28.2,5.73,1.75,-19.5,26.7
2016-02-17 00:14:00,0.0,1.92410,0.00038,406.534,0.491,0.0734,0.0016,139.998,45.000,31479.92977,1.92548,406.915,34.015,45.070,45.000,0.00,0.08,-272.76,-272.81,-6,522,-938,20.6,2.4,-28.6,20.7,2.5,-28.2,5.73,2.03,-19.5,26.7
2016-02-17 00:15:00,0.0,1.92435,0.00030,405.892,0.095,0.0730,0.0017,140.002,45.000,31478.90228,1.92573,406.250,34.014,45.071,45.000,0.00,0.08,-272.75,-272.81,-6,522,-938,20.6,2.4,-28.6,20.7,2.5,-28.2,5.73,2.00,-19.6,26.7
2016-02-17 00:16:00,0.0,1.92441,0.00028,406.387,0.292,0.0736,0.0014,139.999,45.000,31479.72292,1.92581,406.733,34.013,45.070,45.000,0.00,0.08,-272.76,-272.81,-5,522,-938,20.6,2.4,-28.6,20.7,2.5,-28.2,5.73,1.76,-19.6,26.7
2016-02-17 00:17:00,0.0,1.92455,0.00040,407.339,0.351,0.0728,0.0018,140.000,45.000,31478.48491,1.92592,407.677,34.032,45.070,45.000,0.00,0.08,-272.76,-272.81,-5,522,-938,20.6,2.4,-28.6,20.7,2.5,-28.2,5.73,2.11,-19.6,26.7
2016-02-17 00:18:00,0.0,1.92447,0.00036,407.488,0.333,0.0729,0.0019,140.002,45.000,31478.51871,1.92587,407.855,34.027,45.070,45.000,0.00,0.08,-272.75,-272.81,-6,522,-938,20.6,2.4,-28.6,20.7,2.5,-28.2,5.73,1.88,-19.6,26.7
2016-02-17 00:19:00,0.0,1.92450,0.00035,407.191,0.155,0.0735,0.0018,140.000,45.000,31478.27297,1.92587,407.559,34.007,45.070,45.000,0.00,0.08,-272.76,-272.81,-5,522,-938,20.6,2.4,-28.6,20.7,2.5,-28.2,5.73,1.84,-19.6,26.8
2016-02-17 00:20:00,0.0,1.92433,0.00036,406.242,0.215,0.0732,0.0016,139.999,45.000,31478.77033,1.92574,406.612,34.001,45.070,45.000,0.00,0.08,-272.76,-272.81,-5,522,-938,20.6,2.4,-28.5,20.7,2.5,-28.2,5.73,2.13,-19.6,26.7
2016-02-17 00:21:00,0.0,1.92423,0.00037,406.561,0.152,0.0726,0.0015,139.999,45.000,31479.00698,1.92562,406.910,34.000,45.070,45.000,0.00,0.08,-272.75,-272.81,-6,522,-938,20.6,2.4,-28.6,20.7,2.5,-28.2,5.73,1.77,-19.6,26.7
2016-02-17 00:22:00,0.0,1.92441,0.00032,406.717,0.365,0.0733,0.0015,139.999,45.000,31477.52575,1.92579,407.078,34.002,45.070,45.000,0.00,0.08,-272.75,-272.80,-6,522,-938,20.6,2.4,-28.6,20.7,2.5,-28.2,5.73,1.98,-19.6,26.8
2016-02-17 00:23:00,0.0,1.92415,0.00039,407.081,0.628,0.0732,0.0014,140.001,45.000,31481.16317,1.92555,407.416,34.008,45.070,45.000,0.00,0.08,-272.76,-272.82,-5,522,-938,20.6,2.4,-28.6,20.7,2.5,-28.2,5.73,2.05,-19.7,26.8
2016-02-17 00:24:00,0.0,1.92446,0.00039,407.312,0.312,0.0724,0.0013,139.996,45.000,31479.20644,1.92580,407.673,34.005,45.070,45.000,0.00,0.08,-272.75,-272.81,-6,522,-938,20.6,2.4,-28.6,20.7,2.5,-28.2,5.73,1.75,-19.6,26.7
2016-02-17 00:25:00,0.0,1.92442,0.00036,407.170,0.168,0.0730,0.0014,140.000,45.000,31480.58832,1.92581,407.526,33.998,45.070,45.000,0.00,0.08,-272.75,-272.81,-6,522,-938,20.6,2.4,-28.6,20.7,2.5,-28.2,5.73,2.09,-19.7,26.7
2016-02-17 00:26:00,0.0,1.92410,0.00037,407.076,0.255,0.0727,0.0021,139.999,45.000,31481.18609,1.92550,407.435,33.998,45.070,45.000,0.00,0.08,-272.75,-272.82,-5,522,-938,20.6,2.4,-28.6,20.7,2.5,-28.2,5.73,1.92,-19.7,26.8
2016-02-17 00:27:00,0.0,1.92423,0.00039,407.097,0.156,0.0728,0.0020,140.001,45.000,31479.31285,1.92560,407.461,34.000,45.070,45.000,0.00,0.08,-272.76,-272.81,-6,522,-938,20.6,2.4,-28.6,20.7,2.5,-28.2,5.73,1.80,-19.7,26.8
2016-02-17 00:28:00,0.0,1.92448,0.00035,406.875,0.200,0.0732,0.0014,139.997,45.000,31477.62881,1.92586,407.234,34.007,45.070,45.000,0.00,0.08,-272.75,-272.81,-6,522,-938,20.6,2.4,-28.6,20.7,2.5,-28.2,5.73,2.13,-19.7,26.8
2016-02-17 00:29:00,0.0,1.92475,0.00041,407.184,0.325,0.0733,0.0016,139.999,45.000,31477.44805,1.92613,407.528,34.050,45.070,45.000,0.00,0.08,-272.75,-272.82,-5,522,-938,20.6,2.4,-28.6,20.7,2.5,-28.2,5.73,1.80,-19.7,26.7
2016-02-17 00:30:00,0.0,1.92453,0.00038,407.451,0.124,0.0723,0.0015,140.000,45.000,31477.65377,1.92591,407.811,34.062,45.070,45.000,0.00,0.08,-272.77,-272.81,-5,522,-938,20.6,2.4,-28.6,20.7,2.5,-28.2,5.73,1.93,-19.7,26.7
2016-02-17 00:31:00,0.0,1.92437,0.00036,406.703,0.276,0.0738,0.0012,140.000,45.000,31478.24588,1.92577,407.075,34.054,45.070,45.000,0.00,0.08,-272.75,-272.81,-7,522,-938,20.6,2.4,-28.6,20.7,2.5,-28.2,5.73,2.08,-19.7,26.8
2016-02-17 00:32:00,0.0,1.92432,0.00034,406.520,0.110,0.0730,0.0017,140.000,45.000,31476.73608,1.92568,406.881,34.052,45.070,45.000,0.00,0.08,-272.75,-272.80,-5,522,-938,20.6,2.4,-28.6,20.7,2.5,-28.2,5.73,1.74,-19.7,26.8
2016-02-17 00:33:00,0.0,1.92434,0.00043,406.277,0.063,0.0731,0.0019,140.002,45.000,31475.90392,1.92575,406.637,34.039,45.070,45.000,0.00,0.08,-272.77,-272.81,-5,522,-938,20.6,2.4,-28.6,20.7,2.5,-28.2,5.73,2.07,-19.7,26.7
2016-02-17 00:34:00,0.0,1.92416,0.00038,405.928,0.164,0.0740,0.0013,140.000,45.000,31476.25962,1.92555,406.294,34.048,45.070,45.000,0.00,0.08,-272.76,-272.82,-7,522,-938,20.6,2.4,-28.6,20.7,2.5,-28.1,5.73,1.95,-19.7,26.7
2016-02-17 00:35:00,0.0,1.92399,0.00027,406.208,0.257,0.0736,0.0016,140.000,45.000,31478.12809,1.92540,406.558,34.055,45.070,45.000,0.00,0.08,-272.74,-272.80,-6,522,-938,20.6,2.4,-28.6,20.7,2.5,-28.2,5.73,1.79,-19.7,26.7
2016-02-17 00:36:00,0.0,1.92450,0.00033,406.644,0.155,0.0731,0.0018,140.000,45.000,31475.48408,1.92586,406.994,34.060,45.070,45.000,0.00,0.08,-272.76,-272.81,-5,522,-938,20.6,2.4,-28.6,20.7,2.5,-28.2,5.73,2.13,-19.7,26.8
2016-02-17 00:37:00,0.0,1.92437,0.00028,406.997,0.114,0.0735,0.0021,139.998,45.000,31475.49549,1.92576,407.355,34.065,45.070,45.000,0.00,0.08,-272.75,-272.82,-6,522,-938,20.6,2.4,-28.6,20.7,2.5,-28.1,5.73,1.80,-19.7,26.8
2016-02-17 00:38:00,0.0,1.92436,0.00044,407.499,0.226,0.0740,0.0021,139.999,45.000,31476.54759,1.92577,407.855,34.088,45.070,45.000,0.00,0.08,-272.76,-272.80,-6,522,-938,20.6,2.4,-28.5,20.7,2.5,-28.2,5.73,1.92,-19.7,26.8
2016-02-17 00:39:00,0.0,1.92419,0.00023,407.868,0.297,0.0738,0.0021,139.999,45.000,31476.93601,1.92560,408.218,34.094,45.070,45.000,0.00,0.08,-272.75,-272.81,-5,522,-938,20.6,2.4,-28.5,20.7,2.5,-28.2,5.73,2.08,-19.7,26.8
2016-02-17 00:40:00,0.0,1.92417,0.00036,408.412,0.225,0.0737,0.0018,140.000,45.000,31477.96569,1.92554,408.767,34.077,45.070,45.000,0.00,0.08,-272.76,-272.82,-6,522,-938,20.6,2.4,-28.4,20.7,2.5,-28.1,5.73,1.74,-19.7,26.8
2016-02-17 00:41:00,0.0,1.92421,0.00036,408.185,0.317,0.0739,0.0019,140.001,45.000,31478.35581,1.92561,408.559,34.063,45.070,45.000,0.00,0.08,-272.76,-272.81,-6,522,-938,20.6,2.4,-28.4,20.7,2.5,-28.2,5.73,2.06,-19.7,26.8
2016-02-17 00:42:00,0.0,1.92435,0.00038,407.581,0.312,0.0735,0.0022,140.000,45.000,31479.02936,1.92574,407.958,34.060,45.070,45.000,0.00,0.08,-272.75,-272.81,-5,522,-938,20.6,2.4,-28.5,20.7,2.5,-28.2,5.73,1.95,-19.7,26.8
2016-02-17 00:43:00,0.0,1.92405,0.00037,406.682,0.156,0.0730,0.0018,140.000,45.000,31480.60406,1.92546,407.049,34.064,45.070,45.000,0.00,0.08,-272.76,-272.81,-6,522,-938,20.6,2.4,-28.5,20.7,2.5,-28.1,5.73,1.79,-19.7,26.8
2016-02-17 00:44:00,0.0,1.92378,0.00035,406.667,0.199,0.0733,0.0013,139.999,45.000,31481.53232,1.92516,407.022,34.063,45.070,45.000,0.00,0.08,-272.76,-272.81,-6,522,-938,20.6,2.4,-28.6,20.7,2.5,-28.2,5.73,2.14,-19.7,26.8
2016-02-17 00:45:00,0.0,1.92384,0.00030,406.906,0.104,0.0737,0.0019,139.999,45.000,31481.73898,1.92523,407.261,34.063,45.070,45.000,0.00,0.08,-272.75,-272.81,-5,522,-938,20.6,2.4,-28.5,20.7,2.5,-28.2,5.73,1.80,-19.7,26.8
2016-02-17 00:46:00,0.0,1.92406,0.00038,406.957,0.056,0.0737,0.0024,139.999,45.000,31480.66131,1.92545,407.320,34.084,45.070,45.000,0.00,0.08,-272.76,-272.80,-6,522,-938,20.6,2.4,-28.4,20.7,2.5,-28.2,5.73,1.92,-19.7,26.8
2016-02-17 00:47:00,0.0,1.92423,0.00037,406.590,0.179,0.0741,0.0016,139.999,45.000,31478.12400,1.92562,406.959,34.108,45.070,45.000,0.00,0.08,-272.76,-272.82,-6,522,-938,20.6,2.4,-28.5,20.7,2.5,-28.2,5.73,2.08,-19.7,26.8
2016-02-17 00:48:00,0.0,1.92426,0.00031,406.542,0.070,0.0744,0.0016,140.001,45.000,31478.93144,1.92568,406.908,34.093,45.070,45.000,0.00,0.08,-272.75,-272.81,-5,522,-938,20.6,2.4,-28.5,20.7,2.5,-28.2,5.73,1.74,-19.7,26.8
2016-02-17 00:49:00,0.0,1.92410,0.00035,406.801,0.202,0.0738,0.0016,139.996,45.000,31477.93373,1.92550,407.151,34.108,45.070,45.000,0.00,0.08,-272.76,-272.80,-5,522,-938,20.6,2.4,-28.5,20.7,2.5,-28.2,5.73,2.06,-19.7,26.8
2016-02-17 00:50:00,0.0,1.92437,0.00035,407.573,0.174,0.0738,0.0018,139.998,45.000,31477.23731,1.92574,407.927,34.095,45.070,45.000,0.00,0.08,-272.75,-272.82,-6,522,-938,20.6,2.4,-28.4,20.7,2.5,-28.2,5.73,1.95,-19.7,26.8
2016-02-17 00:51:00,0.0,1.92465,0.00039,407.601,0.309,0.0740,0.0017,139.999,45.000,31475.90082,1.92607,407.976,34.069,45.070,45.000,0.00,0.08,-272.75,-272.81,-5,522,-938,20.6,2.4,-28.5,20.7,2.5,-28.2,5.73,1.78,-19.7,26.8
2016-02-17 00:52:00,0.0,1.92430,0.00031,406.371,0.284,0.0742,0.0020,139.999,45.000,31478.93812,1.92571,406.748,34.063,45.070,45.000,0.00,0.08,-272.75,-272.80,-5,522,-938,20.7,2.4,-28.4,20.7,2.5,-28.2,5.73,2.13,-19.7,26.8
2016-02-17 00:53:00,0.0,1.92418,0.00028,405.928,0.065,0.0741,0.0013,140.000,45.000,31480.94213,1.92556,406.290,34.065,45.070,45.000,0.00,0.08,-272.75,-272.82,-7,522,-938,20.6,2.4,-28.4,20.7,2.5,-28.1,5.73,1.81,-19.7,26.8
2016-02-17 00:54:00,0.0,1.92395,0.00041,406.072,0.085,0.0739,0.0013,139.998,45.000,31480.59589,1.92536,406.435,34.068,45.070,45.000,0.00,0.08,-272.76,-272.81,-6,522,-938,20.6,2.4,-28.5,20.7,2.5,-28.2,5.73,1.91,-19.7,26.8
2016-02-17 00:55:00,0.0,1.92356,0.00042,406.139,0.119,0.0741,0.0014,140.001,45.000,31482.43605,1.92499,406.497,34.074,45.070,45.000,0.00,0.08,-272.76,-272.81,-5,522,-938,20.6,2.4,-28.4,20.7,2.5,-28.2,5.73,2.09,-19.7,26.8
2016-02-17 00:56:00,0.0,1.92342,0.00029,406.324,0.116,0.0739,0.0019,139.998,45.000,31482.65504,1.92480,406.680,34.079,45.070,45.000,0.00,0.08,-272.75,-272.81,-7,522,-938,20.7,2.4,-28.5,20.7,2.5,-28.0,5.73,1.74,-19.7,26.8
2016-02-17 00:57:00,0.0,1.92360,0.00037,406.521,0.033,0.0744,0.0015,140.000,45.000,31481.83630,1.92501,406.884,34.077,45.070,45.000,0.00,0.08,-272.76,-272.81,-6,522,-938,20.6,2.4,-28.4,20.7,2.5,-28.0,5.73,2.05,-19.7,26.8
2016-02-17 00:58:00,0.0,1.92377,0.00045,406.301,0.129,0.0748,0.0018,140.001,45.000,31480.35966,1.92520,406.673,34.098,45.070,45.000,0.00,0.08,-272.75,-272.81,-5,522,-938,20.6,2.4,-28.5,20.7,2.5,-28.0,5.73,1.95,-19.7,26.8
2016-02-17 00:59:00,0.0,1.92364,0.00038,406.278,0.131,0.0741,0.0015,139.997,45.000,31479.07898,1.92504,406.641,34.115,45.070,45.000,0.00,0.08,-272.75,-272.80,-6,522,-938,20.7,2.4,-28.5,20.7,2.5,-28.0,5.73,1.79,-19.7,26.8
2016-02-17 01:00:00,0.0,1.92345,0.00027,406.238,0.171,0.0745,0.0015,139.998,45.000,31478.03914,1.92486,406.603,34.109,45.070,45.000,0.00,0.08,-272.76,-272.81,-6,522,-938,20.6,2.4,-28.4,20.7,2.5,-28.0,5.73,2.13,-19.7,26.7
2016-02-17 01:01:00,0.0,1.92358,0.00052,405.976,0.129,0.0744,0.0016,139.999,45.000,31479.11664,1.92500,406.342,34.111,45.070,45.000,0.00,0.08,-272.75,-272.82,-5,522,-938,20.6,2.4,-28.5,20.7,2.5,-28.0,5.73,1.80,-19.7,26.7
2016-02-17 01:02:00,0.0,1.92348,0.00037,406.151,0.091,0.0747,0.0022,139.997,45.000,31479.92007,1.92488,406.513,34.121,45.070,45.000,0.00,0.08,-272.75,-272.80,-6,522,-938,20.7,2.4,-28.5,20.7,2.5,-28.0,5.73,1.92,-19.7,26.7
2016-02-17 01:03:00,0.0,1.92384,0.00044,405.923,0.137,0.0743,0.0022,140.001,45.000,31481.21928,1.92525,406.287,34.083,45.070,45.000,0.00,0.08,-272.75,-272.81,-6,522,-938,20.6,2.4,-28.5,20.7,2.5,-28.0,5.73,2.08,-19.7,26.8
2016-02-17 01:04:00,0.0,1.92354,0.00029,405.921,0.081,0.0747,0.0016,139.999,45.000,31479.21389,1.92497,406.291,34.063,45.070,45.000,0.00,0.08,-272.75,-272.82,-5,522,-938,20.6,2.4,-28.5,20.7,2.5,-28.0,5.73,1.74,-19.7,26.8
2016-02-17 01:05:00,0.0,1.92377,0.00040,406.112,0.216,0.0739,0.0020,139.998,45.000,31479.54693,1.92517,406.464,34.041,45.070,45.000,0.00,0.08,-272.75,-272.81,-6,522,-938,20.7,2.4,-28.4,20.7,2.5,-28.0,5.73,2.07,-19.7,26.8
2016-02-17 01:06:00,0.0,1.92316,0.00033,406.141,0.178,0.0744,0.0013,140.000,45.000,31480.78892,1.92456,406.512,34.041,45.071,45.000,0.00,0.08,-272.75,-272.81,-7,522,-938,20.7,2.4,-28.4,20.7,2.5,-28.0,5.73,1.93,-19.7,26.8
2016-02-17 01:07:00,0.0,1.92332,0.00042,406.185,0.183,0.0750,0.0009,139.999,45.000,31480.83525,1.92475,406.545,34.059,45.071,45.001,0.00,0.08,-272.76,-272.82,-5,522,-938,20.6,2.4,-28.4,20.7,2.5,-28.0,5.73,1.80,-19.7,26.8
2016-02-17 01:08:00,0.0,1.92358,0.00044,406.509,0.109,0.0749,0.0012,139.999,45.000,31478.83252,1.92499,406.871,34.063,45.071,45.000,0.00,0.08,-272.76,-272.81,-6,522,-938,20.7,2.4,-28.4,20.7,2.5,-28.0,5.73,2.13,-19.7,26.8
2016-02-17 01:09:00,0.0,1.92324,0.00040,406.680,0.164,0.0751,0.0017,140.000,45.000,31479.52516,1.92469,407.041,34.061,45.070,45.000,0.00,0.08,-272.75,-272.81,-7,522,-938,20.7,2.4,-28.3,20.7,2.5,-28.0,5.73,1.78,-19.7,26.8
2016-02-17 01:10:00,0.0,1.92316,0.00039,406.966,0.081,0.0743,0.0014,139.998,45.000,31478.93931,1.92456,407.331,34.059,45.070,45.000,0.00,0.08,-272.76,-272.81,-5,522,-938,20.6,2.4,-28.3,20.7,2.5,-27.9,5.73,1.95,-19.7,26.8
2016-02-17 01:11:00,0.0,1.92311,0.00033,406.940,0.122,0.0747,0.0012,140.000,45.000,31479.03156,1.92451,407.308,34.065,45.070,45.000,0.00,0.08,-272.76,-272.81,-6,522,-938,20.7,2.4,-28.3,20.7,2.5,-27.9,5.73,2.06,-19.7,26.8
2016-02-17 01:12:00,0.0,1.92322,0.00039,406.415,0.136,0.0755,0.0015,140.002,45.000,31478.17049,1.92465,406.792,34.066,45.070,45.000,0.00,0.08,-272.76,-272.81,-7,522,-938,20.6,2.4,-28.4,20.7,2.5,-27.9,5.73,1.74,-19.7,26.8
2016-02-17 01:13:00,0.0,1.92307,0.00038,406.140,0.161,0.0753,0.0017,140.000,45.000,31477.49292,1.92453,406.509,34.076,45.070,45.000,0.00,0.08,-272.76,-272.81,-5,522,-938,20.6,2.4,-28.3,20.7,2.5,-27.9,5.73,2.10,-19.7,26.8
2016-02-17 01:14:00,0.0,1.92289,0.00031,406.178,0.163,0.0751,0.0021,139.999,45.000,31478.00270,1.92431,406.539,34.087,45.070,45.000,0.00,0.08,-272.75,-272.82,-5,522,-938,20.7,2.4,-28.3,20.7,2.5,-27.9,5.73,1.89,-19.7,26.8
2016-02-17 01:15:00,0.0,1.92286,0.00035,406.616,0.179,0.0750,0.0018,139.999,45.000,31477.53872,1.92427,406.982,34.065,45.070,45.000,0.00,0.08,-272.75,-272.81,-7,522,-938,20.7,2.4,-28.3,20.7,2.5,-27.9,5.73,1.83,-19.7,26.8
2016-02-17 01:16:00,0.0,1.92302,0.00034,406.463,0.313,0.0751,0.0016,139.999,45.000,31477.78187,1.92446,406.841,34.064,45.070,45.000,0.00,0.08,-272.75,-272.81,-5,522,-938,20.7,2.4,-28.3,20.7,2.5,-27.9,5.73,2.12,-19.7,26.8
2016-02-17 01:17:00,0.0,1.92323,0.00040,405.739,0.116,0.0755,0.0017,139.998,45.000,31477.51943,1.92465,406.112,34.050,45.070,45.000,0.00,0.08,-272.75,-272.81,-5,522,-938,20.6,2.4,-28.3,20.7,2.5,-27.9,5.73,1.76,-19.7,26.8
2016-02-17 01:18:00,0.0,1.92321,0.00042,405.471,0.136,0.0756,0.0020,139.996,45.000,31475.78475,1.92462,405.847,34.058,45.070,45.000,0.00,0.08,-272.76,-272.81,-7,522,-938,20.7,2.4,-28.4,20.7,2.5,-27.9,5.73,2.00,-19.7,26.8
2016-02-17 01:19:00,0.0,1.92361,0.00038,405.251,0.046,0.0751,0.0015,139.999,45.000,31477.08636,1.92503,405.618,34.057,45.070,45.000,0.00,0.08,-272.75,-272.81,-6,522,-938,20.6,2.4,-28.3,20.7,2.5,-27.9,5.73,2.00,-19.7,26.8
2016-02-17 01:20:00,0.0,1.92378,0.00038,405.180,0.046,0.0755,0.0012,140.000,45.000,31477.36302,1.92520,405.550,34.060,45.070,45.000,0.00,0.08,-272.76,-272.81,-5,522,-938,20.7,2.4,-28.3,20.7,2.5,-27.9,5.73,1.75,-19.7,26.8
2016-02-17 01:21:00,0.0,1.92382,0.00035,405.111,0.025,0.0752,0.0018,139.999,45.000,31478.37488,1.92526,405.479,34.061,45.070,45.000,0.00,0.08,-272.76,-272.81,-7,522,-938,20.7,2.4,-28.3,20.7,2.5,-27.9,5.73,2.13,-19.7,26.8
2016-02-17 01:22:00,0.0,1.92384,0.00029,405.070,0.043,0.0749,0.0017,139.996,45.000,31478.21919,1.92524,405.434,34.063,45.070,45.000,0.00,0.08,-272.75,-272.81,-6,522,-938,20.7,2.4,-28.3,20.7,2.5,-27.9,5.73,1.82,-19.7,26.8
2016-02-17 01:23:00,0.0,1.92435,0.00032,405.105,0.030,0.0746,0.0013,140.000,45.000,31477.36875,1.92576,405.468,34.061,45.070,45.000,0.00,0.08,-272.76,-272.81,-5,522,-938,20.7,2.4,-28.3,20.7,2.5,-27.9,5.73,1.91,-19.7,26.8
2016-02-17 01:24:00,0.0,1.92368,0.00034,405.229,0.080,0.0747,0.0015,140.000,45.000,31477.72988,1.92514,405.592,34.063,45.070,45.000,0.00,0.08,-272.76,-272.81,-6,522,-938,20.7,2.4,-28.3,20.7,2.5,-27.9,5.73,2.08,-19.7,26.8
2016-02-17 01:25:00,0.0,1.92357,0.00042,405.141,0.042,0.0751,0.0018,140.000,45.000,31478.89440,1.92497,405.509,34.063,45.070,45.000,0.00,0.08,-272.75,-272.81,-6,522,-938,20.7,2.4,-28.3,20.7,2.5,-27.9,5.73,1.74,-19.7,26.8
2016-02-17 01:26:00,0.0,1.92354,0.00032,405.074,0.025,0.0756,0.0019,140.002,45.000,31480.01489,1.92497,405.443,34.063,45.070,45.000,0.00,0.08,-272.76,-272.80,-5,522,-938,20.7,2.4,-28.3,20.7,2.5,-27.9,5.73,2.08,-19.7,26.8
2016-02-17 01:27:00,0.0,1.92345,0.00035,405.082,0.043,0.0746,0.0013,139.998,45.000,31480.02534,1.92486,405.445,34.097,45.070,45.000,0.00,0.08,-272.76,-272.82,-7,522,-938,20.7,2.4,-28.3,20.7,2.5,-27.9,5.73,1.91,-19.7,26.8
2016-02-17 01:28:00,0.0,1.92387,0.00034,405.075,0.037,0.0747,0.0018,139.999,45.000,31479.66214,1.92531,405.440,34.116,45.070,45.000,0.00,0.08,-272.75,-272.81,-6,522,-938,20.7,2.4,-28.3,20.7,2.5,-27.9,5.73,1.82,-19.7,26.8
2016-02-17 01:29:00,0.0,1.92380,0.00044,405.054,0.029,0.0752,0.0016,139.999,45.000,31479.51495,1.92519,405.421,34.125,45.070,45.000,0.00,0.08,-272.75,-272.81,-5,522,-938,20.7,2.4,-28.4,20.7,2.5,-27.9,5.73,2.12,-19.7,26.8
2016-02-17 01:30:00,0.0,1.92413,0.00041,405.080,0.028,0.0745,0.0009,140.002,45.000,31479.04846,1.92553,405.442,34.125,45.070,45.000,0.00,0.08,-272.75,-272.81,-6,522,-938,20.7,2.4,-28.4,20.8,2.5,-28.0,5.73,1.75,-19.7,26.8
2016-02-17 01:31:00,0.0,1.92409,0.00044,405.104,0.028,0.0745,0.0022,139.999,45.000,31476.91400,1.92549,405.468,34.130,45.070,45.000,0.00,0.08,-272.77,-272.81,-6,522,-938,20.7,2.4,-28.4,20.7,2.5,-28.1,5.73,2.02,-19.7,26.8
2016-02-17 01:32:00,0.0,1.92463,0.00041,405.113,0.023,0.0744,0.0020,140.002,45.000,31476.51550,1.92605,405.475,34.130,45.070,45.000,0.00,0.08,-272.75,-272.81,-5,522,-938,20.7,2.4,-28.4,20.7,2.5,-28.0,5.73,1.99,-19.7,26.8
2016-02-17 01:33:00,0.0,1.92461,0.00037,405.060,0.029,0.0737,0.0017,140.000,45.000,31476.79314,1.92601,405.419,34.152,45.070,45.000,0.00,0.08,-272.75,-272.81,-6,522,-938,20.7,2.4,-28.4,20.7,2.5,-28.0,5.73,1.77,-19.7,26.8
2016-02-17 01:34:00,0.0,1.92445,0.00031,405.069,0.037,0.0743,0.0017,140.002,45.000,31477.55411,1.92585,405.432,34.183,45.070,45.000,0.00,0.08,-272.76,-272.82,-6,522,-938,20.7,2.4,-28.4,20.8,2.5,-28.0,5.73,2.13,-19.7,26.8
2016-02-17 01:35:00,0.0,1.92437,0.00037,405.037,0.034,0.0748,0.0019,139.997,45.000,31476.90280,1.92580,405.402,34.188,45.070,45.000,0.00,0.08,-272.75,-272.81,-5,522,-938,20.7,2.4,-28.4,20.7,2.5,-28.1,5.73,1.79,-19.7,26.8
2016-02-17 01:36:00,0.0,1.92428,0.00027,405.061,0.028,0.0743,0.0017,140.002,45.000,31477.27351,1.92570,405.423,34.187,45.070,45.000,0.00,0.08,-272.75,-272.81,-6,522,-938,20.7,2.4,-28.4,20.8,2.5,-28.0,5.73,1.95,-19.7,26.8
2016-02-17 01:37:00,0.0,1.92390,0.00029,405.059,0.021,0.0740,0.0020,139.999,45.000,31478.27613,1.92530,405.420,34.185,45.070,45.000,0.00,0.08,-272.76,-272.82,-6,522,-938,20.7,2.4,-28.4,20.7,2.5,-28.0,5.73,2.05,-19.7,26.8
2016-02-17 01:38:00,0.0,1.92436,0.00028,405.060,0.027,0.0746,0.0020,139.999,45.000,31475.86923,1.92576,405.423,34.197,45.070,45.000,0.00,0.08,-272.76,-272.81,-5,522,-938,20.7,2.4,-28.4,20.8,2.5,-28.0,5.73,1.75,-19.7,26.8
2016-02-17 01:39:00,0.0,1.92429,0.00033,405.069,0.025,0.0749,0.0018,140.001,45.000,31476.10326,1.92570,405.433,34.217,45.070,45.000,0.00,0.08,-272.76,-272.80,-6,522,-938,20.7,2.4,-28.4,20.8,2.5,-28.0,5.73,2.11,-19.7,26.8
2016-02-17 01:40:00,0.0,1.92410,0.00032,405.071,0.035,0.0748,0.0024,140.002,45.000,31478.16279,1.92553,405.435,34.230,45.070,45.000,0.00,0.08,-272.75,-272.81,-6,522,-938,20.7,2.4,-28.4,20.7,2.5,-28.0,5.73,1.85,-19.7,26.8
2016-02-17 01:41:00,0.0,1.92395,0.00035,405.069,0.043,0.0746,0.0025,139.999,45.000,31479.12372,1.92536,405.433,34.233,45.070,45.000,0.00,0.08,-272.76,-272.81,-5,522,-938,20.7,2.4,-28.4,20.8,2.5,-28.0,5.73,1.88,-19.7,26.8
2016-02-17 01:42:00,0.0,1.92393,0.00040,405.063,0.037,0.0749,0.0018,139.998,45.000,31478.10686,1.92534,405.428,34.189,45.070,45.000,0.00,0.08,-272.75,-272.80,-6,522,-938,20.7,2.4,-28.4,20.8,2.5,-28.0,5.73,2.09,-19.7,26.8
2016-02-17 01:43:00,0.0,1.92354,0.00052,405.056,0.039,0.0754,0.0017,140.001,45.000,31478.80340,1.92497,405.425,34.165,45.070,45.000,0.00,0.08,-272.75,-272.81,-6,522,-938,20.7,2.4,-28.4,20.8,2.5,-28.0,5.73,1.74,-19.7,26.8
2016-02-17 01:44:00,0.0,1.92354,0.00046,405.058,0.033,0.0745,0.0017,139.998,45.000,31478.38366,1.92498,405.420,34.127,45.070,45.000,0.00,0.08,-272.76,-272.81,-5,522,-938,20.7,2.4,-28.4,20.8,2.5,-28.0,5.73,2.08,-19.7,26.8
2016-02-17 01:45:00,0.0,1.92337,0.00026,405.059,0.030,0.0745,0.0018,139.999,45.000,31478.90243,1.92477,405.421,34.126,45.071,45.001,0.00,0.08,-272.75,-272.81,-6,522,-938,20.7,2.4,-28.4,20.8,2.5,-27.9,5.73,1.90,-19.7,26.8